﻿_id,UTC_DateTime,UTC_Time,PG,PG_mean,unit,site,lat,lon,alt
1,2017-08-31T00:00:00,00:00:00,44,66,V/m,CAS,-31.798,290.705,2550
2,2017-08-31T01:00:00,01:00:00,65,62,V/m,CAS,-31.798,290.705,2550
3,2017-08-31T02:00:00,02:00:00,57,61,V/m,CAS,-31.798,290.705,2550
4,2017-08-31T03:00:00,03:00:00,61,61,V/m,CAS,-31.798,290.705,2550
5,2017-08-31T04:00:00,04:00:00,41,59,V/m,CAS,-31.798,290.705,2550
6,2017-08-31T05:00:00,05:00:00,35,59,V/m,CAS,-31.798,290.705,2550
7,2017-08-31T06:00:00,06:00:00,37,62,V/m,CAS,-31.798,290.705,2550
8,2017-08-31T07:00:00,07:00:00,39,63,V/m,CAS,-31.798,290.705,2550
9,2017-08-31T08:00:00,08:00:00,40,64,V/m,CAS,-31.798,290.705,2550
10,2017-08-31T09:00:00,09:00:00,44,63,V/m,CAS,-31.798,290.705,2550
11,2017-08-31T10:00:00,10:00:00,48,61,V/m,CAS,-31.798,290.705,2550
12,2017-08-31T11:00:00,11:00:00,46,76,V/m,CAS,-31.798,290.705,2550
13,2017-08-31T12:00:00,12:00:00,68,94,V/m,CAS,-31.798,290.705,2550
14,2017-08-31T13:00:00,13:00:00,76,103,V/m,CAS,-31.798,290.705,2550
15,2017-08-31T14:00:00,14:00:00,85,108,V/m,CAS,-31.798,290.705,2550
16,2017-08-31T15:00:00,15:00:00,89,104,V/m,CAS,-31.798,290.705,2550
17,2017-08-31T16:00:00,16:00:00,105,104,V/m,CAS,-31.798,290.705,2550
18,2017-08-31T17:00:00,17:00:00,109,104,V/m,CAS,-31.798,290.705,2550
19,2017-08-31T18:00:00,18:00:00,113,108,V/m,CAS,-31.798,290.705,2550
20,2017-08-31T19:00:00,19:00:00,111,111,V/m,CAS,-31.798,290.705,2550
21,2017-08-31T20:00:00,20:00:00,128,110,V/m,CAS,-31.798,290.705,2550
22,2017-08-31T21:00:00,21:00:00,122,106,V/m,CAS,-31.798,290.705,2550
23,2017-08-31T22:00:00,22:00:00,86,99,V/m,CAS,-31.798,290.705,2550
24,2017-08-31T23:00:00,23:00:00,75,86,V/m,CAS,-31.798,290.705,2550
25,2017-09-01T00:00:00,00:00:00,57,66,V/m,CAS,-31.798,290.705,2550
26,2017-09-01T01:00:00,01:00:00,54,62,V/m,CAS,-31.798,290.705,2550
27,2017-09-01T02:00:00,02:00:00,72,61,V/m,CAS,-31.798,290.705,2550
28,2017-09-01T03:00:00,03:00:00,77,61,V/m,CAS,-31.798,290.705,2550
29,2017-09-01T04:00:00,04:00:00,47,59,V/m,CAS,-31.798,290.705,2550
30,2017-09-01T05:00:00,05:00:00,55,59,V/m,CAS,-31.798,290.705,2550
31,2017-09-01T06:00:00,06:00:00,68,62,V/m,CAS,-31.798,290.705,2550
32,2017-09-01T07:00:00,07:00:00,58,63,V/m,CAS,-31.798,290.705,2550
33,2017-09-01T08:00:00,08:00:00,79,64,V/m,CAS,-31.798,290.705,2550
34,2017-09-01T09:00:00,09:00:00,65,63,V/m,CAS,-31.798,290.705,2550
35,2017-09-01T10:00:00,10:00:00,52,61,V/m,CAS,-31.798,290.705,2550
36,2017-09-01T11:00:00,11:00:00,51,76,V/m,CAS,-31.798,290.705,2550
37,2017-09-01T12:00:00,12:00:00,66,94,V/m,CAS,-31.798,290.705,2550
38,2017-09-01T13:00:00,13:00:00,74,103,V/m,CAS,-31.798,290.705,2550
39,2017-09-01T14:00:00,14:00:00,76,108,V/m,CAS,-31.798,290.705,2550
40,2017-09-01T15:00:00,15:00:00,70,104,V/m,CAS,-31.798,290.705,2550
41,2017-09-01T16:00:00,16:00:00,,,"","",,,
42,2017-09-01T17:00:00,17:00:00,,,"","",,,
43,2017-09-01T18:00:00,18:00:00,,,"","",,,
44,2017-09-01T19:00:00,19:00:00,,,"","",,,
45,2017-09-01T20:00:00,20:00:00,91,110,V/m,CAS,-31.798,290.705,2550
46,2017-09-01T21:00:00,21:00:00,101,106,V/m,CAS,-31.798,290.705,2550
47,2017-09-01T22:00:00,22:00:00,91,99,V/m,CAS,-31.798,290.705,2550
48,2017-09-01T23:00:00,23:00:00,80,86,V/m,CAS,-31.798,290.705,2550
49,2017-09-02T00:00:00,00:00:00,68,66,V/m,CAS,-31.798,290.705,2550
50,2017-09-02T01:00:00,01:00:00,53,62,V/m,CAS,-31.798,290.705,2550
51,2017-09-02T02:00:00,02:00:00,42,61,V/m,CAS,-31.798,290.705,2550
52,2017-09-02T03:00:00,03:00:00,41,61,V/m,CAS,-31.798,290.705,2550
53,2017-09-02T04:00:00,04:00:00,38,59,V/m,CAS,-31.798,290.705,2550
54,2017-09-02T05:00:00,05:00:00,38,59,V/m,CAS,-31.798,290.705,2550
55,2017-09-02T06:00:00,06:00:00,43,62,V/m,CAS,-31.798,290.705,2550
56,2017-09-02T07:00:00,07:00:00,39,63,V/m,CAS,-31.798,290.705,2550
57,2017-09-02T08:00:00,08:00:00,43,64,V/m,CAS,-31.798,290.705,2550
58,2017-09-02T09:00:00,09:00:00,44,63,V/m,CAS,-31.798,290.705,2550
59,2017-09-02T10:00:00,10:00:00,47,61,V/m,CAS,-31.798,290.705,2550
60,2017-09-02T11:00:00,11:00:00,45,76,V/m,CAS,-31.798,290.705,2550
61,2017-09-02T12:00:00,12:00:00,53,94,V/m,CAS,-31.798,290.705,2550
62,2017-09-02T13:00:00,13:00:00,61,103,V/m,CAS,-31.798,290.705,2550
63,2017-09-02T14:00:00,14:00:00,69,108,V/m,CAS,-31.798,290.705,2550
64,2017-09-02T15:00:00,15:00:00,,,"","",,,
65,2017-09-02T16:00:00,16:00:00,,,"","",,,
66,2017-09-02T17:00:00,17:00:00,,,"","",,,
67,2017-09-02T18:00:00,18:00:00,72,108,V/m,CAS,-31.798,290.705,2550
68,2017-09-02T19:00:00,19:00:00,78,111,V/m,CAS,-31.798,290.705,2550
69,2017-09-02T20:00:00,20:00:00,75,110,V/m,CAS,-31.798,290.705,2550
70,2017-09-02T21:00:00,21:00:00,89,106,V/m,CAS,-31.798,290.705,2550
71,2017-09-02T22:00:00,22:00:00,95,99,V/m,CAS,-31.798,290.705,2550
72,2017-09-02T23:00:00,23:00:00,87,86,V/m,CAS,-31.798,290.705,2550
73,2017-09-03T00:00:00,00:00:00,82,66,V/m,CAS,-31.798,290.705,2550
74,2017-09-03T01:00:00,01:00:00,56,62,V/m,CAS,-31.798,290.705,2550
75,2017-09-03T02:00:00,02:00:00,53,61,V/m,CAS,-31.798,290.705,2550
76,2017-09-03T03:00:00,03:00:00,71,61,V/m,CAS,-31.798,290.705,2550
77,2017-09-03T04:00:00,04:00:00,64,59,V/m,CAS,-31.798,290.705,2550
78,2017-09-03T05:00:00,05:00:00,70,59,V/m,CAS,-31.798,290.705,2550
79,2017-09-03T06:00:00,06:00:00,73,62,V/m,CAS,-31.798,290.705,2550
80,2017-09-03T07:00:00,07:00:00,70,63,V/m,CAS,-31.798,290.705,2550
81,2017-09-03T08:00:00,08:00:00,61,64,V/m,CAS,-31.798,290.705,2550
82,2017-09-03T09:00:00,09:00:00,54,63,V/m,CAS,-31.798,290.705,2550
83,2017-09-03T10:00:00,10:00:00,68,61,V/m,CAS,-31.798,290.705,2550
84,2017-09-03T11:00:00,11:00:00,76,76,V/m,CAS,-31.798,290.705,2550
85,2017-09-03T12:00:00,12:00:00,65,94,V/m,CAS,-31.798,290.705,2550
86,2017-09-03T13:00:00,13:00:00,,,"","",,,
87,2017-09-03T14:00:00,14:00:00,,,"","",,,
88,2017-09-03T15:00:00,15:00:00,,,"","",,,
89,2017-09-03T16:00:00,16:00:00,,,"","",,,
90,2017-09-03T17:00:00,17:00:00,,,"","",,,
91,2017-09-03T18:00:00,18:00:00,,,"","",,,
92,2017-09-03T19:00:00,19:00:00,,,"","",,,
93,2017-09-03T20:00:00,20:00:00,,,"","",,,
94,2017-09-03T21:00:00,21:00:00,,,"","",,,
95,2017-09-03T22:00:00,22:00:00,,,"","",,,
96,2017-09-03T23:00:00,23:00:00,,,"","",,,
97,2017-09-04T00:00:00,00:00:00,99,66,V/m,CAS,-31.798,290.705,2550
98,2017-09-04T01:00:00,01:00:00,90,62,V/m,CAS,-31.798,290.705,2550
99,2017-09-04T02:00:00,02:00:00,83,61,V/m,CAS,-31.798,290.705,2550
100,2017-09-04T03:00:00,03:00:00,55,61,V/m,CAS,-31.798,290.705,2550
101,2017-09-04T04:00:00,04:00:00,50,59,V/m,CAS,-31.798,290.705,2550
102,2017-09-04T05:00:00,05:00:00,63,59,V/m,CAS,-31.798,290.705,2550
103,2017-09-04T06:00:00,06:00:00,65,62,V/m,CAS,-31.798,290.705,2550
104,2017-09-04T07:00:00,07:00:00,75,63,V/m,CAS,-31.798,290.705,2550
105,2017-09-04T08:00:00,08:00:00,85,64,V/m,CAS,-31.798,290.705,2550
106,2017-09-04T09:00:00,09:00:00,83,63,V/m,CAS,-31.798,290.705,2550
107,2017-09-04T10:00:00,10:00:00,63,61,V/m,CAS,-31.798,290.705,2550
108,2017-09-04T11:00:00,11:00:00,72,76,V/m,CAS,-31.798,290.705,2550
109,2017-09-04T12:00:00,12:00:00,110,94,V/m,CAS,-31.798,290.705,2550
110,2017-09-04T13:00:00,13:00:00,123,103,V/m,CAS,-31.798,290.705,2550
111,2017-09-04T14:00:00,14:00:00,120,108,V/m,CAS,-31.798,290.705,2550
112,2017-09-04T15:00:00,15:00:00,124,104,V/m,CAS,-31.798,290.705,2550
113,2017-09-04T16:00:00,16:00:00,124,104,V/m,CAS,-31.798,290.705,2550
114,2017-09-04T17:00:00,17:00:00,128,104,V/m,CAS,-31.798,290.705,2550
115,2017-09-04T18:00:00,18:00:00,118,108,V/m,CAS,-31.798,290.705,2550
116,2017-09-04T19:00:00,19:00:00,129,111,V/m,CAS,-31.798,290.705,2550
117,2017-09-04T20:00:00,20:00:00,114,110,V/m,CAS,-31.798,290.705,2550
118,2017-09-04T21:00:00,21:00:00,98,106,V/m,CAS,-31.798,290.705,2550
119,2017-09-04T22:00:00,22:00:00,111,99,V/m,CAS,-31.798,290.705,2550
120,2017-09-04T23:00:00,23:00:00,77,86,V/m,CAS,-31.798,290.705,2550
121,2017-09-05T00:00:00,00:00:00,60,66,V/m,CAS,-31.798,290.705,2550
122,2017-09-05T01:00:00,01:00:00,62,62,V/m,CAS,-31.798,290.705,2550
123,2017-09-05T02:00:00,02:00:00,52,61,V/m,CAS,-31.798,290.705,2550
124,2017-09-05T03:00:00,03:00:00,63,61,V/m,CAS,-31.798,290.705,2550
125,2017-09-05T04:00:00,04:00:00,62,59,V/m,CAS,-31.798,290.705,2550
126,2017-09-05T05:00:00,05:00:00,61,59,V/m,CAS,-31.798,290.705,2550
127,2017-09-05T06:00:00,06:00:00,59,62,V/m,CAS,-31.798,290.705,2550
128,2017-09-05T07:00:00,07:00:00,63,63,V/m,CAS,-31.798,290.705,2550
129,2017-09-05T08:00:00,08:00:00,72,64,V/m,CAS,-31.798,290.705,2550
130,2017-09-05T09:00:00,09:00:00,70,63,V/m,CAS,-31.798,290.705,2550
131,2017-09-05T10:00:00,10:00:00,65,61,V/m,CAS,-31.798,290.705,2550
132,2017-09-05T11:00:00,11:00:00,92,76,V/m,CAS,-31.798,290.705,2550
133,2017-09-05T12:00:00,12:00:00,81,94,V/m,CAS,-31.798,290.705,2550
134,2017-09-05T13:00:00,13:00:00,79,103,V/m,CAS,-31.798,290.705,2550
135,2017-09-05T14:00:00,14:00:00,88,108,V/m,CAS,-31.798,290.705,2550
136,2017-09-05T15:00:00,15:00:00,83,104,V/m,CAS,-31.798,290.705,2550
137,2017-09-05T16:00:00,16:00:00,96,104,V/m,CAS,-31.798,290.705,2550
138,2017-09-05T17:00:00,17:00:00,91,104,V/m,CAS,-31.798,290.705,2550
139,2017-09-05T18:00:00,18:00:00,96,108,V/m,CAS,-31.798,290.705,2550
140,2017-09-05T19:00:00,19:00:00,100,111,V/m,CAS,-31.798,290.705,2550
141,2017-09-05T20:00:00,20:00:00,86,110,V/m,CAS,-31.798,290.705,2550
142,2017-09-05T21:00:00,21:00:00,99,106,V/m,CAS,-31.798,290.705,2550
143,2017-09-05T22:00:00,22:00:00,93,99,V/m,CAS,-31.798,290.705,2550
144,2017-09-05T23:00:00,23:00:00,86,86,V/m,CAS,-31.798,290.705,2550
145,2017-09-06T00:00:00,00:00:00,,,"","",,,
146,2017-09-06T01:00:00,01:00:00,43,62,V/m,CAS,-31.798,290.705,2550
147,2017-09-06T02:00:00,02:00:00,40,61,V/m,CAS,-31.798,290.705,2550
148,2017-09-06T03:00:00,03:00:00,41,61,V/m,CAS,-31.798,290.705,2550
149,2017-09-06T04:00:00,04:00:00,42,59,V/m,CAS,-31.798,290.705,2550
150,2017-09-06T05:00:00,05:00:00,,,"","",,,
151,2017-09-06T06:00:00,06:00:00,,,"","",,,
152,2017-09-06T07:00:00,07:00:00,68,63,V/m,CAS,-31.798,290.705,2550
153,2017-09-06T08:00:00,08:00:00,59,64,V/m,CAS,-31.798,290.705,2550
154,2017-09-06T09:00:00,09:00:00,,,"","",,,
155,2017-09-06T10:00:00,10:00:00,63,61,V/m,CAS,-31.798,290.705,2550
156,2017-09-06T11:00:00,11:00:00,63,76,V/m,CAS,-31.798,290.705,2550
157,2017-09-06T12:00:00,12:00:00,70,94,V/m,CAS,-31.798,290.705,2550
158,2017-09-06T13:00:00,13:00:00,71,103,V/m,CAS,-31.798,290.705,2550
159,2017-09-06T14:00:00,14:00:00,75,108,V/m,CAS,-31.798,290.705,2550
160,2017-09-06T15:00:00,15:00:00,79,104,V/m,CAS,-31.798,290.705,2550
161,2017-09-06T16:00:00,16:00:00,81,104,V/m,CAS,-31.798,290.705,2550
162,2017-09-06T17:00:00,17:00:00,,,"","",,,
163,2017-09-06T18:00:00,18:00:00,,,"","",,,
164,2017-09-06T19:00:00,19:00:00,,,"","",,,
165,2017-09-06T20:00:00,20:00:00,,,"","",,,
166,2017-09-06T21:00:00,21:00:00,,,"","",,,
167,2017-09-06T22:00:00,22:00:00,,,"","",,,
168,2017-09-06T23:00:00,23:00:00,,,"","",,,
169,2017-09-07T00:00:00,00:00:00,46,66,V/m,CAS,-31.798,290.705,2550
170,2017-09-07T01:00:00,01:00:00,55,62,V/m,CAS,-31.798,290.705,2550
171,2017-09-07T02:00:00,02:00:00,40,61,V/m,CAS,-31.798,290.705,2550
172,2017-09-07T03:00:00,03:00:00,47,61,V/m,CAS,-31.798,290.705,2550
173,2017-09-07T04:00:00,04:00:00,52,59,V/m,CAS,-31.798,290.705,2550
174,2017-09-07T05:00:00,05:00:00,72,59,V/m,CAS,-31.798,290.705,2550
175,2017-09-07T06:00:00,06:00:00,60,62,V/m,CAS,-31.798,290.705,2550
176,2017-09-07T07:00:00,07:00:00,72,63,V/m,CAS,-31.798,290.705,2550
177,2017-09-07T08:00:00,08:00:00,77,64,V/m,CAS,-31.798,290.705,2550
178,2017-09-07T09:00:00,09:00:00,83,63,V/m,CAS,-31.798,290.705,2550
179,2017-09-07T10:00:00,10:00:00,67,61,V/m,CAS,-31.798,290.705,2550
180,2017-09-07T11:00:00,11:00:00,73,76,V/m,CAS,-31.798,290.705,2550
181,2017-09-07T12:00:00,12:00:00,107,94,V/m,CAS,-31.798,290.705,2550
182,2017-09-07T13:00:00,13:00:00,153,103,V/m,CAS,-31.798,290.705,2550
183,2017-09-07T14:00:00,14:00:00,167,108,V/m,CAS,-31.798,290.705,2550
184,2017-09-07T15:00:00,15:00:00,152,104,V/m,CAS,-31.798,290.705,2550
185,2017-09-07T16:00:00,16:00:00,122,104,V/m,CAS,-31.798,290.705,2550
186,2017-09-07T17:00:00,17:00:00,129,104,V/m,CAS,-31.798,290.705,2550
187,2017-09-07T18:00:00,18:00:00,129,108,V/m,CAS,-31.798,290.705,2550
188,2017-09-07T19:00:00,19:00:00,121,111,V/m,CAS,-31.798,290.705,2550
189,2017-09-07T20:00:00,20:00:00,127,110,V/m,CAS,-31.798,290.705,2550
190,2017-09-07T21:00:00,21:00:00,117,106,V/m,CAS,-31.798,290.705,2550
191,2017-09-07T22:00:00,22:00:00,111,99,V/m,CAS,-31.798,290.705,2550
192,2017-09-07T23:00:00,23:00:00,92,86,V/m,CAS,-31.798,290.705,2550
193,2017-09-08T00:00:00,00:00:00,64,66,V/m,CAS,-31.798,290.705,2550
194,2017-09-08T01:00:00,01:00:00,79,62,V/m,CAS,-31.798,290.705,2550
195,2017-09-08T02:00:00,02:00:00,71,61,V/m,CAS,-31.798,290.705,2550
196,2017-09-08T03:00:00,03:00:00,82,61,V/m,CAS,-31.798,290.705,2550
197,2017-09-08T04:00:00,04:00:00,58,59,V/m,CAS,-31.798,290.705,2550
198,2017-09-08T05:00:00,05:00:00,51,59,V/m,CAS,-31.798,290.705,2550
199,2017-09-08T06:00:00,06:00:00,60,62,V/m,CAS,-31.798,290.705,2550
200,2017-09-08T07:00:00,07:00:00,67,63,V/m,CAS,-31.798,290.705,2550
201,2017-09-08T08:00:00,08:00:00,71,64,V/m,CAS,-31.798,290.705,2550
202,2017-09-08T09:00:00,09:00:00,65,63,V/m,CAS,-31.798,290.705,2550
203,2017-09-08T10:00:00,10:00:00,51,61,V/m,CAS,-31.798,290.705,2550
204,2017-09-08T11:00:00,11:00:00,56,76,V/m,CAS,-31.798,290.705,2550
205,2017-09-08T12:00:00,12:00:00,77,94,V/m,CAS,-31.798,290.705,2550
206,2017-09-08T13:00:00,13:00:00,86,103,V/m,CAS,-31.798,290.705,2550
207,2017-09-08T14:00:00,14:00:00,93,108,V/m,CAS,-31.798,290.705,2550
208,2017-09-08T15:00:00,15:00:00,85,104,V/m,CAS,-31.798,290.705,2550
209,2017-09-08T16:00:00,16:00:00,84,104,V/m,CAS,-31.798,290.705,2550
210,2017-09-08T17:00:00,17:00:00,,,"","",,,
211,2017-09-08T18:00:00,18:00:00,,,"","",,,
212,2017-09-08T19:00:00,19:00:00,,,"","",,,
213,2017-09-08T20:00:00,20:00:00,,,"","",,,
214,2017-09-08T21:00:00,21:00:00,,,"","",,,
215,2017-09-08T22:00:00,22:00:00,,,"","",,,
216,2017-09-08T23:00:00,23:00:00,,,"","",,,
217,2017-09-09T00:00:00,00:00:00,77,66,V/m,CAS,-31.798,290.705,2550
218,2017-09-09T01:00:00,01:00:00,106,62,V/m,CAS,-31.798,290.705,2550
219,2017-09-09T02:00:00,02:00:00,82,61,V/m,CAS,-31.798,290.705,2550
220,2017-09-09T03:00:00,03:00:00,91,61,V/m,CAS,-31.798,290.705,2550
221,2017-09-09T04:00:00,04:00:00,69,59,V/m,CAS,-31.798,290.705,2550
222,2017-09-09T05:00:00,05:00:00,71,59,V/m,CAS,-31.798,290.705,2550
223,2017-09-09T06:00:00,06:00:00,87,62,V/m,CAS,-31.798,290.705,2550
224,2017-09-09T07:00:00,07:00:00,88,63,V/m,CAS,-31.798,290.705,2550
225,2017-09-09T08:00:00,08:00:00,73,64,V/m,CAS,-31.798,290.705,2550
226,2017-09-09T09:00:00,09:00:00,73,63,V/m,CAS,-31.798,290.705,2550
227,2017-09-09T10:00:00,10:00:00,70,61,V/m,CAS,-31.798,290.705,2550
228,2017-09-09T11:00:00,11:00:00,98,76,V/m,CAS,-31.798,290.705,2550
229,2017-09-09T12:00:00,12:00:00,135,94,V/m,CAS,-31.798,290.705,2550
230,2017-09-09T13:00:00,13:00:00,128,103,V/m,CAS,-31.798,290.705,2550
231,2017-09-09T14:00:00,14:00:00,127,108,V/m,CAS,-31.798,290.705,2550
232,2017-09-09T15:00:00,15:00:00,127,104,V/m,CAS,-31.798,290.705,2550
233,2017-09-09T16:00:00,16:00:00,139,104,V/m,CAS,-31.798,290.705,2550
234,2017-09-09T17:00:00,17:00:00,133,104,V/m,CAS,-31.798,290.705,2550
235,2017-09-09T18:00:00,18:00:00,121,108,V/m,CAS,-31.798,290.705,2550
236,2017-09-09T19:00:00,19:00:00,109,111,V/m,CAS,-31.798,290.705,2550
237,2017-09-09T20:00:00,20:00:00,120,110,V/m,CAS,-31.798,290.705,2550
238,2017-09-09T21:00:00,21:00:00,102,106,V/m,CAS,-31.798,290.705,2550
239,2017-09-09T22:00:00,22:00:00,99,99,V/m,CAS,-31.798,290.705,2550
240,2017-09-09T23:00:00,23:00:00,116,86,V/m,CAS,-31.798,290.705,2550
241,2017-09-10T00:00:00,00:00:00,103,66,V/m,CAS,-31.798,290.705,2550
242,2017-09-10T01:00:00,01:00:00,132,62,V/m,CAS,-31.798,290.705,2550
243,2017-09-10T02:00:00,02:00:00,105,61,V/m,CAS,-31.798,290.705,2550
244,2017-09-10T03:00:00,03:00:00,85,61,V/m,CAS,-31.798,290.705,2550
245,2017-09-10T04:00:00,04:00:00,92,59,V/m,CAS,-31.798,290.705,2550
246,2017-09-10T05:00:00,05:00:00,63,59,V/m,CAS,-31.798,290.705,2550
247,2017-09-10T06:00:00,06:00:00,94,62,V/m,CAS,-31.798,290.705,2550
248,2017-09-10T07:00:00,07:00:00,79,63,V/m,CAS,-31.798,290.705,2550
249,2017-09-10T08:00:00,08:00:00,92,64,V/m,CAS,-31.798,290.705,2550
250,2017-09-10T09:00:00,09:00:00,126,63,V/m,CAS,-31.798,290.705,2550
251,2017-09-10T10:00:00,10:00:00,101,61,V/m,CAS,-31.798,290.705,2550
252,2017-09-10T11:00:00,11:00:00,105,76,V/m,CAS,-31.798,290.705,2550
253,2017-09-10T12:00:00,12:00:00,131,94,V/m,CAS,-31.798,290.705,2550
254,2017-09-10T13:00:00,13:00:00,150,103,V/m,CAS,-31.798,290.705,2550
255,2017-09-10T14:00:00,14:00:00,142,108,V/m,CAS,-31.798,290.705,2550
256,2017-09-10T15:00:00,15:00:00,139,104,V/m,CAS,-31.798,290.705,2550
257,2017-09-10T16:00:00,16:00:00,139,104,V/m,CAS,-31.798,290.705,2550
258,2017-09-10T17:00:00,17:00:00,124,104,V/m,CAS,-31.798,290.705,2550
259,2017-09-10T18:00:00,18:00:00,116,108,V/m,CAS,-31.798,290.705,2550
260,2017-09-10T19:00:00,19:00:00,117,111,V/m,CAS,-31.798,290.705,2550
261,2017-09-10T20:00:00,20:00:00,122,110,V/m,CAS,-31.798,290.705,2550
262,2017-09-10T21:00:00,21:00:00,107,106,V/m,CAS,-31.798,290.705,2550
263,2017-09-10T22:00:00,22:00:00,97,99,V/m,CAS,-31.798,290.705,2550
264,2017-09-10T23:00:00,23:00:00,73,86,V/m,CAS,-31.798,290.705,2550
265,2017-09-11T00:00:00,00:00:00,59,66,V/m,CAS,-31.798,290.705,2550
266,2017-09-11T01:00:00,01:00:00,60,62,V/m,CAS,-31.798,290.705,2550
267,2017-09-11T02:00:00,02:00:00,58,61,V/m,CAS,-31.798,290.705,2550
268,2017-09-11T03:00:00,03:00:00,58,61,V/m,CAS,-31.798,290.705,2550
269,2017-09-11T04:00:00,04:00:00,56,59,V/m,CAS,-31.798,290.705,2550
270,2017-09-11T05:00:00,05:00:00,58,59,V/m,CAS,-31.798,290.705,2550
271,2017-09-11T06:00:00,06:00:00,70,62,V/m,CAS,-31.798,290.705,2550
272,2017-09-11T07:00:00,07:00:00,75,63,V/m,CAS,-31.798,290.705,2550
273,2017-09-11T08:00:00,08:00:00,66,64,V/m,CAS,-31.798,290.705,2550
274,2017-09-11T09:00:00,09:00:00,62,63,V/m,CAS,-31.798,290.705,2550
275,2017-09-11T10:00:00,10:00:00,63,61,V/m,CAS,-31.798,290.705,2550
276,2017-09-11T11:00:00,11:00:00,68,76,V/m,CAS,-31.798,290.705,2550
277,2017-09-11T12:00:00,12:00:00,79,94,V/m,CAS,-31.798,290.705,2550
278,2017-09-11T13:00:00,13:00:00,90,103,V/m,CAS,-31.798,290.705,2550
279,2017-09-11T14:00:00,14:00:00,111,108,V/m,CAS,-31.798,290.705,2550
280,2017-09-11T15:00:00,15:00:00,92,104,V/m,CAS,-31.798,290.705,2550
281,2017-09-11T16:00:00,16:00:00,90,104,V/m,CAS,-31.798,290.705,2550
282,2017-09-11T17:00:00,17:00:00,93,104,V/m,CAS,-31.798,290.705,2550
283,2017-09-11T18:00:00,18:00:00,103,108,V/m,CAS,-31.798,290.705,2550
284,2017-09-11T19:00:00,19:00:00,114,111,V/m,CAS,-31.798,290.705,2550
285,2017-09-11T20:00:00,20:00:00,132,110,V/m,CAS,-31.798,290.705,2550
286,2017-09-11T21:00:00,21:00:00,135,106,V/m,CAS,-31.798,290.705,2550
287,2017-09-11T22:00:00,22:00:00,130,99,V/m,CAS,-31.798,290.705,2550
288,2017-09-11T23:00:00,23:00:00,115,86,V/m,CAS,-31.798,290.705,2550
289,2017-09-12T00:00:00,00:00:00,88,66,V/m,CAS,-31.798,290.705,2550
290,2017-09-12T01:00:00,01:00:00,64,62,V/m,CAS,-31.798,290.705,2550
291,2017-09-12T02:00:00,02:00:00,64,61,V/m,CAS,-31.798,290.705,2550
292,2017-09-12T03:00:00,03:00:00,76,61,V/m,CAS,-31.798,290.705,2550
293,2017-09-12T04:00:00,04:00:00,66,59,V/m,CAS,-31.798,290.705,2550
294,2017-09-12T05:00:00,05:00:00,66,59,V/m,CAS,-31.798,290.705,2550
295,2017-09-12T06:00:00,06:00:00,80,62,V/m,CAS,-31.798,290.705,2550
296,2017-09-12T07:00:00,07:00:00,88,63,V/m,CAS,-31.798,290.705,2550
297,2017-09-12T08:00:00,08:00:00,97,64,V/m,CAS,-31.798,290.705,2550
298,2017-09-12T09:00:00,09:00:00,96,63,V/m,CAS,-31.798,290.705,2550
299,2017-09-12T10:00:00,10:00:00,108,61,V/m,CAS,-31.798,290.705,2550
300,2017-09-12T11:00:00,11:00:00,119,76,V/m,CAS,-31.798,290.705,2550
301,2017-09-12T12:00:00,12:00:00,128,94,V/m,CAS,-31.798,290.705,2550
302,2017-09-12T13:00:00,13:00:00,128,103,V/m,CAS,-31.798,290.705,2550
303,2017-09-12T14:00:00,14:00:00,107,108,V/m,CAS,-31.798,290.705,2550
304,2017-09-12T15:00:00,15:00:00,115,104,V/m,CAS,-31.798,290.705,2550
305,2017-09-12T16:00:00,16:00:00,119,104,V/m,CAS,-31.798,290.705,2550
306,2017-09-12T17:00:00,17:00:00,121,104,V/m,CAS,-31.798,290.705,2550
307,2017-09-12T18:00:00,18:00:00,123,108,V/m,CAS,-31.798,290.705,2550
308,2017-09-12T19:00:00,19:00:00,136,111,V/m,CAS,-31.798,290.705,2550
309,2017-09-12T20:00:00,20:00:00,118,110,V/m,CAS,-31.798,290.705,2550
310,2017-09-12T21:00:00,21:00:00,99,106,V/m,CAS,-31.798,290.705,2550
311,2017-09-12T22:00:00,22:00:00,130,99,V/m,CAS,-31.798,290.705,2550
312,2017-09-12T23:00:00,23:00:00,113,86,V/m,CAS,-31.798,290.705,2550
313,2017-09-13T00:00:00,00:00:00,116,66,V/m,CAS,-31.798,290.705,2550
314,2017-09-13T01:00:00,01:00:00,102,62,V/m,CAS,-31.798,290.705,2550
315,2017-09-13T02:00:00,02:00:00,98,61,V/m,CAS,-31.798,290.705,2550
316,2017-09-13T03:00:00,03:00:00,88,61,V/m,CAS,-31.798,290.705,2550
317,2017-09-13T04:00:00,04:00:00,77,59,V/m,CAS,-31.798,290.705,2550
318,2017-09-13T05:00:00,05:00:00,73,59,V/m,CAS,-31.798,290.705,2550
319,2017-09-13T06:00:00,06:00:00,76,62,V/m,CAS,-31.798,290.705,2550
320,2017-09-13T07:00:00,07:00:00,83,63,V/m,CAS,-31.798,290.705,2550
321,2017-09-13T08:00:00,08:00:00,93,64,V/m,CAS,-31.798,290.705,2550
322,2017-09-13T09:00:00,09:00:00,82,63,V/m,CAS,-31.798,290.705,2550
323,2017-09-13T10:00:00,10:00:00,87,61,V/m,CAS,-31.798,290.705,2550
324,2017-09-13T11:00:00,11:00:00,118,76,V/m,CAS,-31.798,290.705,2550
325,2017-09-13T12:00:00,12:00:00,126,94,V/m,CAS,-31.798,290.705,2550
326,2017-09-13T13:00:00,13:00:00,128,103,V/m,CAS,-31.798,290.705,2550
327,2017-09-13T14:00:00,14:00:00,123,108,V/m,CAS,-31.798,290.705,2550
328,2017-09-13T15:00:00,15:00:00,134,104,V/m,CAS,-31.798,290.705,2550
329,2017-09-13T16:00:00,16:00:00,125,104,V/m,CAS,-31.798,290.705,2550
330,2017-09-13T17:00:00,17:00:00,101,104,V/m,CAS,-31.798,290.705,2550
331,2017-09-13T18:00:00,18:00:00,101,108,V/m,CAS,-31.798,290.705,2550
332,2017-09-13T19:00:00,19:00:00,105,111,V/m,CAS,-31.798,290.705,2550
333,2017-09-13T20:00:00,20:00:00,106,110,V/m,CAS,-31.798,290.705,2550
334,2017-09-13T21:00:00,21:00:00,96,106,V/m,CAS,-31.798,290.705,2550
335,2017-09-13T22:00:00,22:00:00,111,99,V/m,CAS,-31.798,290.705,2550
336,2017-09-13T23:00:00,23:00:00,98,86,V/m,CAS,-31.798,290.705,2550
337,2017-09-14T00:00:00,00:00:00,90,66,V/m,CAS,-31.798,290.705,2550
338,2017-09-14T01:00:00,01:00:00,91,62,V/m,CAS,-31.798,290.705,2550
339,2017-09-14T02:00:00,02:00:00,79,61,V/m,CAS,-31.798,290.705,2550
340,2017-09-14T03:00:00,03:00:00,79,61,V/m,CAS,-31.798,290.705,2550
341,2017-09-14T04:00:00,04:00:00,74,59,V/m,CAS,-31.798,290.705,2550
342,2017-09-14T05:00:00,05:00:00,65,59,V/m,CAS,-31.798,290.705,2550
343,2017-09-14T06:00:00,06:00:00,61,62,V/m,CAS,-31.798,290.705,2550
344,2017-09-14T07:00:00,07:00:00,62,63,V/m,CAS,-31.798,290.705,2550
345,2017-09-14T08:00:00,08:00:00,56,64,V/m,CAS,-31.798,290.705,2550
346,2017-09-14T09:00:00,09:00:00,52,63,V/m,CAS,-31.798,290.705,2550
347,2017-09-14T10:00:00,10:00:00,51,61,V/m,CAS,-31.798,290.705,2550
348,2017-09-14T11:00:00,11:00:00,62,76,V/m,CAS,-31.798,290.705,2550
349,2017-09-14T12:00:00,12:00:00,77,94,V/m,CAS,-31.798,290.705,2550
350,2017-09-14T13:00:00,13:00:00,88,103,V/m,CAS,-31.798,290.705,2550
351,2017-09-14T14:00:00,14:00:00,83,108,V/m,CAS,-31.798,290.705,2550
352,2017-09-14T15:00:00,15:00:00,88,104,V/m,CAS,-31.798,290.705,2550
353,2017-09-14T16:00:00,16:00:00,84,104,V/m,CAS,-31.798,290.705,2550
354,2017-09-14T17:00:00,17:00:00,85,104,V/m,CAS,-31.798,290.705,2550
355,2017-09-14T18:00:00,18:00:00,98,108,V/m,CAS,-31.798,290.705,2550
356,2017-09-14T19:00:00,19:00:00,101,111,V/m,CAS,-31.798,290.705,2550
357,2017-09-14T20:00:00,20:00:00,118,110,V/m,CAS,-31.798,290.705,2550
358,2017-09-14T21:00:00,21:00:00,138,106,V/m,CAS,-31.798,290.705,2550
359,2017-09-14T22:00:00,22:00:00,125,99,V/m,CAS,-31.798,290.705,2550
360,2017-09-14T23:00:00,23:00:00,104,86,V/m,CAS,-31.798,290.705,2550
